Theta_e
315 315 315 315 316 316 315 315 314 314 314 313 314 314 316 317 319 323 329 336 338 338 337 336 335 336 337 337 340 341 341 345 347 348 348 353 355 353 353 351 353 350 349 350 350
316 316 315 315 315 316 316 315 314 314 314 313 314 314 315 317 319 324 333 332 334 339 337 336 335 337 338 337 338 337 339 343 343 344 350 354 353 352 352 352 350 349 349 350 352
317 317 316 316 315 316 316 315 315 314 314 314 313 314 315 316 318 325 327 330 332 338 336 334 336 337 336 337 338 339 340 340 342 346 353 354 353 350 351 351 348 349 348 349 349
317 317 317 316 316 316 316 316 315 314 314 314 313 313 314 315 321 332 331 330 332 336 334 334 337 337 335 334 336 342 340 339 344 347 352 354 354 350 352 349 347 346 345 348 348
317 317 317 317 316 316 316 316 315 314 314 313 313 313 314 315 320 330 330 330 330 331 332 334 337 336 335 334 336 340 341 340 344 346 350 353 354 355 352 350 349 348 347 347 346
316 317 318 317 317 316 316 316 315 314 314 313 313 313 313 315 321 329 329 329 329 329 330 337 338 337 336 335 336 339 342 341 345 347 351 355 354 354 352 351 352 351 349 348 348
314 316 317 318 318 317 316 316 315 314 314 313 313 313 313 318 323 328 329 329 331 333 337 339 338 338 338 333 336 341 343 342 343 347 352 353 353 355 353 351 352 352 351 350 349
315 315 316 317 318 318 317 317 315 314 314 313 313 313 314 318 321 329 329 329 329 333 335 338 335 335 335 336 335 337 339 345 344 346 351 342 352 353 352 351 351 351 351 351 351
317 316 315 316 318 318 317 317 315 314 313 313 313 314 316 318 320 326 326 327 329 332 333 335 335 334 334 332 332 332 339 339 345 345 346 343 349 352 352 350 351 351 351 351 351
319 317 315 315 317 319 318 317 315 318 315 314 313 314 317 320 321 322 325 326 325 330 335 335 334 330 326 329 335 337 336 336 345 344 344 345 346 352 351 350 350 350 349 351 352
320 319 317 315 316 319 319 316 321 321 318 319 318 315 317 319 320 321 322 323 324 324 328 330 330 331 331 330 332 333 334 335 338 342 344 345 345 352 350 349 349 349 348 348 349
321 320 319 316 316 318 318 317 318 319 317 319 320 319 320 320 320 322 322 322 323 324 328 328 330 330 332 332 333 332 334 336 337 340 342 340 344 350 349 348 348 346 346 347 347
321 321 320 317 316 318 322 321 321 321 318 319 319 318 318 321 322 322 322 322 324 325 328 328 330 331 333 332 333 332 333 334 336 340 339 342 344 349 347 347 347 345 346 346 347
321 321 321 318 318 320 322 320 321 321 312 316 319 319 319 321 320 322 322 322 322 326 325 327 327 330 330 331 331 332 332 334 337 339 341 339 343 345 343 344 345 346 345 346 346
322 321 321 320 317 317 319 320 321 321 314 318 319 321 321 320 320 321 323 322 322 325 325 327 327 328 329 330 331 331 332 333 336 332 328 333 341 342 339 342 347 348 347 346 346
320 321 321 321 319 317 320 320 321 316 317 321 319 320 319 319 320 319 323 323 324 324 323 323 324 326 325 327 328 330 331 328 326 325 329 332 338 340 341 343 344 348 349 347 345
321 320 320 321 320 319 321 321 316 319 318 320 319 318 315 316 319 318 318 319 319 321 322 321 323 324 326 326 325 328 325 329 331 330 330 330 334 341 337 339 342 350 349 344 341
322 320 320 321 321 316 320 315 321 318 319 320 320 318 317 315 316 316 316 315 317 319 318 322 324 324 325 325 325 325 327 329 333 330 332 336 340 344 340 343 346 349 348 346 341
321 319 321 321 318 316 321 315 314 317 320 320 318 317 315 316 317 315 313 312 314 317 319 320 323 323 326 326 328 328 331 326 325 327 335 339 344 344 345 346 345 344 344 344 343
318 319 320 321 318 318 316 316 317 317 319 318 320 321 319 320 317 314 312 314 316 317 318 320 322 323 324 325 325 330 328 333 327 336 345 346 345 340 349 350 346 345 344 344 343
317 318 325 320 320 322 316 314 317 320 319 319 320 319 318 321 316 313 316 317 316 319 318 317 320 324 324 324 324 322 328 325 326 331 341 346 344 337 346 348 346 345 343 341 344
316 316 322 318 317 313 315 315 319 319 319 318 317 317 318 320 323 314 315 316 320 319 320 317 317 321 322 321 322 325 326 326 329 331 336 336 339 338 341 343 342 345 342 344 349
315 316 322 320 320 316 316 318 319 319 318 319 318 319 319 320 323 322 319 319 321 318 319 317 316 320 322 319 324 329 329 325 327 329 339 337 338 337 339 343 342 345 341 347 348
314 320 324 322 320 319 321 322 322 323 322 320 318 318 318 322 321 324 326 326 325 320 322 322 314 318 322 320 329 334 332 329 327 330 334 338 340 341 341 343 342 339 337 345 345
315 317 321 324 323 323 323 323 327 327 325 322 320 318 321 322 322 323 324 323 324 325 322 318 319 321 322 321 333 335 333 330 330 328 336 337 340 341 340 340 341 343 344 345 344
317 318 319 320 322 326 325 329 331 334 331 324 319 323 320 320 321 322 324 324 324 321 321 316 323 332 335 333 334 336 333 331 332 334 336 338 340 336 339 340 340 346 349 346 344
314 314 317 320 322 325 328 330 332 331 332 331 332 333 327 323 327 325 326 327 326 325 321 319 328 328 332 334 334 335 336 334 336 335 336 338 335 334 338 341 340 346 348 346 341
Wind_Speed
11 12 11 11 12 12 12 13 11 9 9 7 8 8 9 11 13 17 21 15 7 8 9 11 13 14 14 4 9 5 4 1 3 4 3 16 7 7 3 15 2 6 9 23 27
12 12 12 12 12 13 13 12 12 10 9 8 8 8 9 10 13 20 17 13 13 12 11 14 17 20 10 2 3 4 3 6 5 6 6 11 17 12 5 6 10 18 21 28 24
14 13 13 13 13 13 13 13 12 12 9 9 8 8 9 9 12 14 11 12 14 12 10 13 14 10 5 5 4 5 5 4 2 11 22 17 14 8 17 2 18 26 31 28 25
14 14 14 13 13 13 14 14 13 12 11 10 9 8 8 6 4 2 2 7 9 9 10 10 9 12 4 5 5 4 5 6 9 17 16 10 13 11 5 9 22 25 28 28 27
13 14 14 14 14 13 14 14 13 12 11 10 10 8 8 6 10 3 2 2 2 6 9 8 11 4 4 7 5 3 7 7 14 20 19 22 17 8 11 20 24 26 27 26 24
13 13 14 14 14 14 14 14 13 12 10 10 11 9 8 5 8 7 4 2 4 6 8 6 6 13 8 6 1 5 7 12 14 17 16 14 14 7 15 24 22 25 27 25 22
14 14 14 14 15 14 14 15 13 12 10 9 11 12 13 19 7 13 8 3 1 3 6 8 10 11 14 7 8 17 6 3 5 10 6 27 0 7 25 27 25 26 26 25 22
16 15 15 15 15 15 15 14 13 11 10 9 9 12 11 8 16 13 9 6 4 4 6 6 13 13 3 8 5 8 5 3 4 5 15 2 3 7 28 29 26 24 25 26 27
15 16 16 16 16 15 14 13 11 10 9 9 8 7 11 7 12 14 10 7 6 6 6 7 9 3 3 3 4 6 5 4 2 9 6 2 4 14 27 27 25 25 26 29 28
16 16 16 16 16 15 13 12 7 9 8 9 11 7 10 4 5 14 14 10 7 8 3 2 2 3 4 5 2 2 1 2 6 10 7 6 5 16 25 24 24 26 26 30 31
17 17 16 16 16 15 12 6 4 2 10 12 13 16 26 15 13 11 14 14 11 4 1 4 5 6 7 6 4 3 4 7 9 8 9 15 7 20 25 22 20 23 25 30 35
17 18 17 16 15 12 9 7 8 8 13 17 20 26 28 26 10 6 13 7 5 4 2 4 4 8 2 3 3 2 5 12 8 6 15 8 5 17 20 26 22 20 25 31 24
18 18 18 16 14 7 5 5 12 12 5 13 14 16 17 9 9 10 10 13 3 5 4 6 7 5 2 6 6 3 4 9 8 5 3 7 3 7 9 9 16 19 32 28 28
18 19 18 16 7 6 3 9 13 1 4 7 4 6 14 8 5 15 14 13 2 10 7 5 5 5 5 7 5 8 3 10 4 5 4 3 3 7 5 9 12 24 32 36 32
18 19 18 16 14 8 6 7 5 1 3 2 4 1 13 12 1 7 11 18 8 6 7 8 3 1 5 9 5 12 7 9 13 6 5 1 5 5 5 6 7 19 33 38 29
19 18 19 17 13 6 4 4 2 5 6 6 3 2 4 2 0 2 8 6 5 3 2 6 0 2 5 3 5 9 7 6 4 4 3 4 4 3 4 8 4 13 21 10 14
20 17 19 17 9 4 3 1 4 3 6 7 3 1 3 0 1 3 3 3 6 4 4 8 7 4 2 7 2 4 6 3 3 5 5 5 5 6 9 4 2 12 15 15 16
21 18 17 18 13 8 3 4 3 3 6 4 5 0 6 5 3 3 3 2 1 5 3 6 7 6 3 7 8 5 8 5 5 4 3 5 3 1 5 5 11 16 21 20 18
20 18 17 12 12 14 6 3 7 6 4 7 8 6 6 4 1 3 7 6 7 8 8 5 7 3 3 2 5 3 3 3 7 3 4 2 1 2 4 3 7 7 16 14 15
19 18 10 9 12 19 4 5 4 5 4 4 3 2 5 3 3 5 7 6 6 11 8 6 5 5 6 1 3 5 4 3 3 4 2 4 3 5 4 7 6 8 13 19 17
13 8 7 13 16 12 4 6 5 11 3 3 1 5 4 4 6 6 7 5 7 7 11 7 4 8 2 3 5 4 1 5 6 3 5 4 6 5 9 11 12 12 21 15 10
6 2 3 23 5 3 3 6 4 5 4 7 4 9 6 4 6 5 10 8 16 12 10 9 6 8 11 6 5 5 8 8 4 4 2 4 5 4 10 12 11 19 19 11 9
10 4 10 17 2 2 4 3 3 3 5 4 4 5 3 5 4 6 4 9 24 9 10 8 1 3 11 8 2 4 3 4 6 4 6 6 4 3 5 7 12 12 13 15 14
4 2 4 14 3 3 2 4 3 6 7 8 6 6 4 5 5 5 3 3 9 14 19 17 5 8 8 8 3 4 2 3 6 4 6 5 7 6 10 9 13 15 15 18 19
3 2 3 2 1 2 3 3 6 4 5 6 4 4 2 5 5 4 2 6 8 6 7 9 9 6 6 6 5 3 5 6 5 7 8 7 10 16 20 15 21 21 16 17 20
3 5 7 4 8 3 2 2 2 3 4 5 5 10 6 7 8 11 2 0 5 5 5 5 6 5 4 3 4 4 4 4 2 4 7 7 0 7 15 22 19 22 19 19 22
4 2 3 4 5 1 2 2 4 10 8 10 10 6 6 3 13 18 16 9 11 3 2 3 7 4 5 2 4 2 3 2 4 1 8 7 8 7 7 18 25 27 22 21 23
Wind_Direction
2 359 356 352 346 339 336 332 329 325 319 317 306 300 287 278 265 261 252 241 261 261 300 323 331 334 322 247 191 168 74 121 195 135 126 145 124 150 114 133 95 212 155 162 163
359 357 354 351 347 341 337 334 327 324 317 316 311 303 297 291 280 250 240 255 260 274 303 321 334 341 333 251 212 123 118 205 206 154 125 116 120 124 116 135 89 103 138 157 160
356 354 352 351 347 342 336 333 329 322 317 315 313 310 301 303 302 258 272 259 250 258 294 314 334 348 318 316 184 127 164 178 213 144 124 118 111 118 124 110 148 144 153 165 172
353 352 348 346 345 339 335 332 326 321 314 312 310 311 301 293 218 52 266 258 253 247 278 311 320 335 310 352 318 124 149 173 156 142 123 126 119 135 147 171 155 145 149 164 178
347 345 344 342 341 339 333 328 324 320 312 306 308 314 306 267 253 253 255 245 281 258 272 304 316 354 4 319 304 135 172 174 148 140 130 128 125 135 126 160 158 155 162 168 179
341 338 337 336 336 336 332 327 321 315 308 299 300 309 297 270 226 233 252 271 301 274 289 299 307 325 304 294 220 268 139 138 129 120 134 119 133 113 160 160 162 169 176 179 183
340 335 331 330 329 331 330 326 320 309 303 295 298 303 283 243 233 229 232 267 246 285 294 293 312 313 315 317 301 121 106 38 146 138 109 118 73 146 165 164 171 183 189 194 196
339 334 330 326 324 326 327 323 316 305 299 292 289 300 267 266 236 220 239 255 276 265 285 305 312 305 218 304 348 97 32 120 229 145 164 78 191 182 167 170 182 191 196 204 208
336 332 327 323 319 320 325 319 310 299 292 288 288 289 269 296 249 225 231 253 276 248 270 292 303 297 9 57 17 28 169 228 209 205 148 209 153 192 178 177 187 197 200 210 218
335 331 326 321 316 318 324 319 307 296 297 294 270 292 263 353 320 226 228 246 290 297 291 271 62 36 44 64 201 150 88 294 212 208 192 190 216 176 191 188 195 197 200 209 219
331 330 326 321 314 320 329 335 341 337 301 263 277 269 283 298 304 234 225 245 246 281 124 14 51 257 243 199 195 257 217 226 231 217 180 208 163 180 191 199 198 198 211 210 216
329 328 324 323 313 318 338 38 51 342 298 277 262 264 264 275 296 241 208 211 172 186 131 12 232 253 259 271 293 3 312 291 276 183 183 153 212 184 186 205 197 188 208 214 212
322 325 325 327 316 316 350 66 351 328 248 289 254 250 254 232 227 248 204 205 160 167 178 179 238 19 358 319 354 317 216 284 252 75 39 114 30 171 209 212 204 193 202 204 211
318 320 324 331 314 316 101 356 340 328 38 278 252 245 199 196 264 234 237 191 243 194 159 236 266 236 284 279 126 293 216 275 208 112 197 121 243 222 179 204 170 177 196 207 209
313 315 316 320 307 305 288 332 346 32 342 216 226 230 171 168 324 196 204 201 181 181 132 231 178 174 241 237 152 254 260 264 263 151 100 357 102 266 152 186 184 186 195 205 200
307 309 305 308 303 295 273 321 136 41 255 329 148 182 132 218 239 9 163 177 210 163 293 219 191 188 233 315 203 263 306 40 38 83 66 217 141 343 222 210 189 192 201 164 191
303 303 294 291 289 280 293 220 46 159 319 335 333 55 49 83 264 13 80 140 156 123 276 332 289 273 196 314 24 104 59 317 2 14 211 309 68 230 289 331 201 170 148 170 180
303 299 283 277 277 254 182 57 181 267 258 309 316 251 164 157 231 154 122 213 151 101 113 183 311 192 170 189 221 230 157 167 190 202 239 329 46 272 301 21 110 160 166 187 196
305 301 284 280 240 203 181 97 208 216 300 350 331 33 352 359 332 139 193 206 206 166 171 158 263 282 169 243 134 275 203 202 107 22 83 277 88 33 328 50 48 102 132 178 208
313 310 292 242 194 175 101 223 230 221 356 9 310 54 352 322 329 150 201 201 213 183 170 223 289 239 276 185 280 168 165 52 355 131 136 298 210 208 199 147 164 185 173 187 199
319 319 330 148 159 168 163 224 258 276 331 324 297 332 240 286 200 203 221 257 201 198 166 149 139 260 172 198 223 338 5 31 115 106 150 165 258 185 179 186 187 193 184 167 142
334 347 130 145 94 89 159 196 230 263 293 253 234 214 229 264 289 237 199 227 197 154 166 193 163 242 235 242 239 199 211 167 135 216 103 143 263 150 180 183 169 188 178 148 129
339 302 166 181 136 228 280 275 250 264 230 255 268 220 243 263 252 205 208 250 245 162 184 172 246 277 306 350 358 221 164 133 119 92 187 145 231 218 153 152 203 202 159 133 127
343 22 142 217 274 108 36 286 264 295 280 231 247 233 267 256 212 284 298 298 324 218 215 150 141 165 215 215 181 313 217 181 121 120 167 215 144 182 172 179 194 190 154 129 120
2 344 17 266 297 343 182 308 303 291 260 313 300 232 4 297 295 234 265 319 329 337 147 142 198 170 228 227 170 218 251 186 181 166 149 205 185 181 184 176 188 187 190 161 144
36 9 351 304 301 258 73 89 266 324 244 268 227 292 247 212 229 279 224 239 249 323 127 299 200 137 203 235 217 233 22 114 83 129 78 100 161 115 143 160 168 176 176 171 160
8 4 330 307 318 64 152 322 285 330 264 246 280 297 274 234 297 271 257 234 240 191 277 139 144 108 213 163 133 16 181 136 119 72 144 149 213 145 157 165 176 175 176 167 169